Home   Weather   Weilheim in Oberbayern   Past weeks

Flag for Germany Past Weather in Weilheim in Oberbayern, Bavaria, Germany — Yesterday and Last 2 Weeks

Now
61 °F

Cool.


Feels Like: 61 °F
Forecast: 62 / 70 °F
Wind: 1 mph from Northeast

Location: Altenstadt Airport

Current Time: Jul 23, 2017 at 1:02:41 am

Latest Report: Jul 23, 2017 at 12:20 am


Visibility: N/A

Pressure: 30.01 "Hg (28.09 "Hg at 560m altitude)

Humidity: 83%

Dew Point: 55 °F

Location of Weilheim in OberbayernLocation

Past Weather in Weilheim in Oberbayern — Graph

°F

Weilheim in Oberbayern Temperature Yesterday

Maximum temperature yesterday: 79 °F (at 4:20 pm)
Minimum temperature yesterday: 59 °F (at 3:20 am)
Average temperature yesterday: 68 °F

High & Low Weather Summary for the Past Weeks

 TemperatureHumidityPressure
High84 °F (Jul 19, 2:20 pm)100% (Jul 14, 9:20 pm)30.33 "Hg (Jul 14, 9:20 pm)
Low46 °F (Jul 16, 4:20 am)33% (Jul 19, 5:20 pm)29.92 "Hg (Jul 10, 5:20 am)
Average63 °F73%30.08 "Hg
* Reported Jul 10 5:20 am — Jul 22 11:20 pm, Weilheim in Oberbayern. Weather by CustomWeather, © 2017

Note: Actual official high and low records may vary slightly from our data, if they occured in-between our weather recording intervals... More about our weather records

Advertising

Weilheim in Oberbayern Weather History for the Previous 24 Hours

Scroll right to see more
 ConditionsComfort  
Time TempWeatherWind HumidityBarometerVisibility
11:20 pm
Sat, Jul 22
63 °FMild.5 mph73%30.04 "HgN/A
10:20 pm66 °FMild.3 mph64%30.04 "HgN/A
9:20 pm70 °FMild.2 mph57%30.04 "HgN/A
8:20 pm73 °FMild.3 mph50%30.04 "HgN/A
7:20 pm77 °FWarm.6 mph47%30.04 "HgN/A
6:20 pm77 °FWarm.10 mph44%30.04 "HgN/A
5:20 pm79 °FWarm.10 mph42%30.01 "HgN/A
4:20 pm79 °FWarm.8 mph45%30.04 "HgN/A
3:20 pm77 °FWarm.6 mph44%30.04 "HgN/A
2:20 pm75 °FMild.7 mph47%30.04 "HgN/A
1:20 pm73 °FMild.7 mph57%30.04 "HgN/A
12:20 pm72 °FMild.7 mph57%30.07 "HgN/A
11:20 am70 °FMild.3 mph64%30.07 "HgN/A
10:20 am66 °FMild.3 mph73%30.07 "HgN/A
9:20 am64 °FMild.2 mph83%30.04 "HgN/A
8:20 am63 °FMild.5 mph88%30.04 "HgN/A
7:20 am63 °FMild.7 mph83%30.01 "HgN/A
6:20 am61 °FCool.9 mph88%30.01 "HgN/A
5:20 am59 °FCool.12 mph88%29.98 "HgN/A
4:20 am59 °FCool.7 mph94%29.98 "HgN/A
3:20 am59 °FCool.7 mph94%29.98 "HgN/A
2:20 am61 °FCool.9 mph88%30.01 "HgN/A
1:20 am63 °FMild.10 mph83%29.98 "HgN/A
Weather by CustomWeather, © 2017

See weather overviewHow to use our weather pages